This demonstration page uses our WeatherBlox Daily Observations layout. Learn more.

Left ArrowRight Arrow

47.50024, -111.30081

Hourly Observations for October 3, 2019

Temp ( °F °C ) Dew Point ( °F °C ) Humidity (%) Winds ( mph kmh ) Pressure ( in mb ) Visibility ( mi km ) Precip ( " mm )
12:53 am 00:53 Clear 30 -1.1 23 -5 75 75 S 6 9 30.16 1021 10 16 0.00 0.00
1:53 am 01:53 Clear 28 -2.2 22 -5.6 78 78 S 8 13 30.15 1021 10 16 0.00 0.00
2:53 am 02:53 Clear 31 -0.6 23 -5 72 72 SSW 12 19 30.13 1020 10 16 0.00 0.00
3:53 am 03:53 Clear 32 0 24 -4.4 73 73 SSW 9 15 30.10 1019 10 16 0.00 0.00
4:53 am 04:53 Clear 36 2.2 25 -3.9 64 64 SSW 13 20 30.09 1019 10 16 0.00 0.00
5:53 am 05:53 Clear 37 2.8 26 -3.3 65 65 SSW 17 28 30.07 1018 10 16 0.00 0.00
6:53 am 06:53 Clear 34 1.1 25 -3.9 70 70 SSW 15 24 30.09 1019 10 16 0.00 0.00
7:53 am 07:53 Sunny 39 3.9 26 -3.3 60 60 SSW 14 22 30.08 1019 10 16 0.00 0.00
8:53 am 08:53 Sunny 38 3.3 27 -2.8 65 65 SSW 10 17 30.10 1019 10 16 0.00 0.00
9:53 am 09:53 Sunny 42 5.6 28 -2.2 58 58 SSW 13 20 30.10 1019 10 16 0.00 0.00
10:53 am 10:53 Sunny 44 6.7 29 -1.7 55 55 SSW 12 19 30.09 1019 10 16 0.00 0.00
11:53 am 11:53 Sunny 46 7.8 30 -1.1 54 54 SSW 9 15 30.10 1019 10 16 0.00 0.00
12:53 pm 12:53 Sunny 48 8.9 28 -2.2 46 46 SW 12 19 30.07 1018 10 16 0.00 0.00
1:53 pm 13:53 Sunny 50 10 27 -2.8 41 41 SW 14 22 30.05 1018 10 16 0.00 0.00
2:53 pm 14:53 Sunny 53 11.7 27 -2.8 37 37 WSW 8 13 30.02 1017 10 16 0.00 0.00
3:53 pm 15:53 Sunny 52 11.1 28 -2.2 40 40 WSW 7 11 30.01 1016 10 16 0.00 0.00
4:53 pm 16:53 Sunny 54 12.2 30 -1.1 40 40 WNW 7 11 29.98 1015 10 16 0.00 0.00
5:53 pm 17:53 Mostly Sunny 51 10.6 34 1.1 52 52 E 7 11 29.99 1016 10 16 0.00 0.00
6:53 pm 18:53 Mostly Sunny 48 8.9 36 2.2 63 63 E 6 9 30.01 1016 10 16 0.00 0.00
7:53 pm 19:53 Clear 45 7.2 37 2.8 74 74 E 6 9 29.99 1016 10 16 0.00 0.00
8:53 pm 20:53 Clear 45 7.2 36 2.2 71 71 E 3 6 29.98 1015 10 16 0.00 0.00
9:53 pm 21:53 Mostly Cloudy 43 6.1 34 1.1 71 71 Calm 29.98 1015 10 16 0.00 0.00
10:53 pm 22:53 Mostly Cloudy 44 6.7 35 1.7 71 71 Calm 29.96 1014 10 16 0.00 0.00
11:53 pm 23:53 Clear 41 5 33 0.6 73 73 Calm 29.95 1014 10 16 0.00 0.00

Powered by AerisWeather